SCP
0 0 0 0 0 1 1 1 2 5 5 5 5 4 3 1 1 1 1 1 1 1 1 1 1 1 1 1 0 0 0 0 0 0 0 0 0 0 0 0 0 0 0
0 0 0 0 0 0 1 3 5 4 5 4 4 2 1 1 0 0 0 1 1 1 0 1 0 0 0 0 0 0 0 0 0 0 0 0 0 0 0 0 0 0 0
0 0 0 0 1 1 2 2 4 4 4 3 2 1 0 0 0 0 0 0 0 1 1 0 0 0 0 0 0 0 0 0 0 0 0 0 0 0 0 0 0 0 0
0 0 0 0 1 1 1 1 2 2 2 1 1 1 0 0 0 0 0 0 1 1 1 0 0 0 0 0 0 0 0 0 0 0 0 0 0 0 0 0 0 0 0
0 0 0 1 1 0 1 1 1 1 1 1 1 0 0 0 0 0 0 0 0 0 0 0 0 0 0 0 0 0 0 0 0 0 0 0 -0 0 0 0 0 0 0
0 0 0 0 0 0 1 1 1 1 1 0 0 0 0 0 0 0 0 0 0 0 0 0 0 0 0 0 0 0 0 0 0 0 0 0 0 0 0 0 0 0 0
0 0 -0 0 -0 0 0 1 0 0 0 0 0 0 0 0 0 0 0 0 0 0 0 0 0 0 0 0 0 0 0 0 -0 -0 0 0 0 0 0 0 0 0 0
-0 -0 -0 -0 0 0 0 0 0 0 0 0 0 0 0 0 0 0 0 0 0 0 0 0 0 0 0 0 0 0 0 0 -0 0 -0 -0 0 0 0 0 0 0 0
-0 -0 -0 -0 -0 0 0 0 0 0 0 0 0 0 0 0 0 0 0 0 0 0 0 0 0 -0 -0 0 0 0 0 -0 0 0 0 0 0 0 0 0 0 0 0
-0 -0 -0 -0 0 -0 -0 0 0 0 0 0 0 0 0 0 0 0 0 0 0 0 0 0 -0 -0 -0 0 0 0 -0 -0 0 0 0 0 0 0 0 0 -0 0 0
-0 -0 -0 0 -0 -0 -0 0 0 0 0 0 0 0 0 0 0 0 0 0 0 0 -0 0 0 0 0 0 -0 0 0 -0 -0 -0 0 0 0 0 0 0 0 0 0
-0 -0 -0 -0 -0 -0 -0 0 0 0 0 0 0 0 0 0 0 0 0 0 0 -0 -0 0 -0 0 0 0 0 0 0 0 0 -0 -0 0 0 0 0 0 0 0 0
-0 -0 -0 -0 -0 -0 -0 -0 0 0 0 0 0 0 0 0 0 0 0 -0 0 0 0 -0 -0 0 0 0 0 0 0 0 0 0 -0 -0 -0 -0 -0 0 0 0 0
-0 -0 -0 -0 -0 -0 -0 -0 0 0 0 0 0 0 0 0 0 0 -0 -0 0 0 -0 -0 -0 -0 -0 0 0 0 0 0 0 0 0 -0 0 0 -0 0 0 0 0
-0 -0 -0 -0 -0 -0 -0 -0 0 -0 0 -0 -0 0 0 0 0 0 -0 -0 -0 -0 -0 -0 -0 0 0 0 0 0 0 0 0 0 0 -0 0 0 0 0 0 0 0
-0 0 -0 -0 -0 -0 -0 -0 -0 -0 -0 -0 0 0 -0 -0 0 -0 -0 -0 -0 -0 -0 -0 -0 0 -0 0 0 0 0 0 0 0 0 0 0 0 0 0 0 0 0
-0 -0 -0 -0 -0 -0 -0 -0 -0 -0 -0 -0 -0 -0 -0 -0 -0 0 0 0 -0 -0 -0 -0 -0 0 0 0 0 -0 0 0 0 -0 0 0 0 0 0 0 0 0 0
0 -0 -0 -0 -0 -0 -0 -0 -0 -0 -0 -0 -0 -0 -0 -0 -0 -0 0 0 0 -0 -0 0 -0 0 0 0 0 -0 0 -0 0 0 0 0 0 0 0 0 0 0 0
0 -0 -0 -0 -0 -0 -0 -0 -0 -0 -0 -0 -0 -0 -0 -0 0 0 0 0 -0 -0 0 0 0 0 0 0 0 0 0 -0 0 0 0 0 0 0 0 0 0 0 0
0 -0 -0 -0 -0 -0 -0 -0 -0 -0 -0 -0 -0 -0 0 -0 -0 -0 0 0 0 -0 0 0 0 0 0 0 0 -0 0 0 0 0 0 0 0 0 0 0 0 0 0
0 -0 -0 -0 -0 -0 -0 -0 -0 -0 0 -0 -0 -0 0 0 0 0 0 0 0 -0 0 0 0 0 0 0 0 -0 0 0 0 0 0 -0 0 0 0 0 0 0 0
0 -0 -0 -0 -0 -0 -0 -0 -0 0 0 -0 -0 -0 -0 0 0 0 0 0 0 0 0 0 0 0 0 0 0 0 0 0 0 0 -0 -0 0 -0 0 0 0 0 0
0 0 -0 -0 -0 -0 -0 -0 -0 0 0 -0 -0 -0 -0 -0 0 0 0 0 0 0 0 0 0 0 0 0 0 0 -0 -0 0 -0 -0 -0 -0 0 0 -0 -0 0 0
0 0 -0 -0 -0 -0 -0 -0 -0 0 -0 -0 -0 -0 -0 -0 0 0 0 0 0 0 -0 0 0 0 -0 -0 0 0 0 -0 -0 -0 -0 -0 -0 0 0 0 -0 0 0
0 0 0 0 -0 -0 -0 0 -0 0 -0 -0 -0 -0 -0 -0 0 0 0 0 0 0 0 0 0 0 0 -0 0 0 0 -0 -0 0 0 0 0 0 -0 -0 -0 -0 -0
0 0 0 0 -0 -0 -0 -0 -0 -0 -0 -0 -0 -0 -0 -0 0 0 0 0 0 0 0 0 0 0 0 0 0 0 0 0 0 0 0 -0 -0 -0 -0 -0 -0 -0 -0
Wind_Speed_500mb
51 51 55 46 53 48 48 36 50 54 56 61 67 68 66 60 52 49 32 31 33 32 26 26 34 47 50 50 42 38 37 37 34 33 31 33 35 32 34 38 36 37 40
65 54 55 46 42 47 34 41 49 53 57 58 63 56 50 54 47 39 35 36 35 34 34 30 40 48 48 42 36 33 35 34 31 34 24 22 33 35 37 42 38 35 34
44 49 52 57 54 42 40 44 45 47 52 54 47 39 41 34 29 39 39 37 36 37 34 34 37 39 39 34 26 30 30 30 27 30 26 11 18 14 34 47 41 43 37
66 71 63 61 40 43 40 37 37 46 46 44 41 43 41 38 32 31 33 32 37 34 36 37 34 32 23 20 16 18 22 23 25 28 34 39 13 8 7 41 44 40 41
59 57 57 61 49 44 39 30 38 44 43 39 39 40 41 35 27 33 32 26 27 32 33 35 28 16 15 13 12 14 18 22 25 28 28 29 37 24 15 19 45 43 33
72 59 30 43 52 40 32 32 35 44 47 41 43 40 37 32 31 27 23 19 21 28 27 24 14 8 10 9 8 8 10 13 15 17 20 24 24 33 32 25 39 47 32
21 36 52 58 50 42 37 34 41 51 48 43 38 39 36 27 33 30 22 25 21 15 12 14 11 9 9 5 2 1 0 3 4 7 13 18 23 23 25 18 31 43 33
54 66 65 58 48 42 37 44 55 51 52 40 37 37 31 30 22 18 18 17 13 7 13 11 7 7 7 8 6 4 2 3 3 6 11 15 17 23 22 29 42 34 29
65 62 55 50 47 40 46 57 50 52 52 41 39 26 22 20 19 16 10 7 3 11 9 6 5 3 3 6 9 7 4 5 8 4 11 15 22 21 23 27 39 41 33
66 62 56 52 44 46 50 48 45 52 43 35 31 23 20 16 10 9 8 12 14 9 4 6 4 1 4 7 9 8 4 6 6 7 10 12 16 21 23 28 37 42 41
71 66 63 52 48 52 47 44 44 42 38 34 28 25 23 14 11 7 7 17 17 10 10 9 7 5 6 5 6 8 13 6 7 6 4 9 10 14 16 19 25 42 36
72 68 63 56 57 53 46 44 40 41 32 33 28 23 18 13 17 11 10 9 23 17 10 4 7 8 15 10 5 11 14 15 4 7 8 12 14 11 12 22 37 32 40
71 70 65 63 58 52 49 45 38 37 36 32 25 21 16 8 14 19 19 21 21 16 11 3 7 11 13 5 3 2 3 6 10 7 11 15 19 19 21 25 30 35 39
74 72 68 64 58 53 47 46 39 34 33 31 25 17 12 9 20 20 24 19 17 13 10 5 3 8 8 11 14 8 3 1 9 11 17 23 21 18 23 35 41 36 46
71 71 70 64 59 52 51 38 43 33 30 30 24 12 7 15 25 21 27 21 21 16 9 5 5 7 12 10 13 10 8 11 15 18 29 22 19 18 22 36 47 73 88
68 71 70 66 63 57 51 41 45 32 31 31 20 10 11 19 17 23 31 20 21 16 13 12 6 6 10 15 14 15 18 16 23 27 27 24 28 26 22 53 60 75 86
68 72 72 68 64 59 49 41 46 39 31 27 18 16 22 15 15 21 28 26 24 18 16 13 11 4 10 15 16 18 19 22 30 33 35 32 31 28 44 65 75 82 76
73 69 70 67 61 55 46 43 46 37 31 26 20 25 25 23 22 21 25 24 23 20 17 14 10 9 9 14 16 22 24 30 31 29 29 33 34 32 61 70 81 69 55
74 73 71 67 62 55 50 48 44 38 35 28 30 29 27 25 21 19 21 23 26 25 23 16 11 10 10 14 16 22 29 29 27 28 25 34 36 42 63 70 66 56 61
57 73 71 68 62 55 52 48 43 40 41 36 34 39 28 17 25 20 17 14 17 20 19 20 15 11 14 16 20 25 29 33 32 29 25 35 42 44 54 63 68 58 53
59 70 71 70 63 57 53 51 44 43 38 34 38 35 29 21 17 18 19 20 17 19 25 26 16 12 18 21 26 27 25 30 35 33 39 43 38 43 56 55 58 54 67
30 68 72 68 61 56 53 52 47 46 39 38 45 44 34 22 20 18 25 20 17 23 29 27 21 21 24 29 29 28 22 23 29 32 36 44 39 40 48 50 49 51 59
21 61 64 66 60 56 53 54 48 48 42 40 43 43 32 23 18 23 27 23 22 28 31 26 26 26 31 35 34 36 28 22 31 44 42 42 41 41 39 47 40 51 52
3 10 64 66 63 56 52 50 51 52 44 46 47 43 34 31 23 27 26 27 27 30 30 27 25 26 32 37 41 43 33 28 41 53 50 48 39 31 37 50 52 53 56
23 4 63 64 60 56 52 53 52 54 45 53 47 46 38 36 25 32 29 20 15 12 20 18 21 26 33 44 47 46 42 48 55 54 49 43 39 42 45 52 55 55 57
22 12 21 63 61 56 53 56 53 60 51 58 54 52 43 39 32 38 38 31 23 15 19 14 13 19 25 42 50 46 41 49 44 40 42 43 44 52 58 58 57 55 49
Wind_Direction_500mb
241 244 265 270 244 251 260 255 244 234 231 224 219 205 213 214 210 223 213 230 242 248 260 261 270 278 278 282 278 266 256 251 248 236 228 242 254 246 238 224 213 214 204
247 257 256 262 266 253 248 239 229 225 224 223 218 213 209 212 225 232 219 233 241 244 249 263 268 270 282 283 281 270 259 257 238 234 227 249 253 249 235 221 211 214 214
241 249 257 276 254 245 249 228 228 226 218 213 200 192 194 204 218 217 215 228 237 239 256 261 278 284 284 288 274 262 258 257 238 234 232 209 240 267 230 217 211 206 215
264 266 261 260 236 227 219 224 215 196 196 197 191 188 188 195 200 201 214 218 235 246 261 263 282 289 283 287 278 258 251 247 236 236 236 234 247 223 230 216 215 212 219
255 245 249 245 219 217 216 210 193 188 191 184 188 182 185 186 174 208 228 218 227 252 259 274 287 290 291 293 287 270 260 250 249 243 236 239 227 236 265 209 208 215 210
263 237 204 190 186 189 190 183 172 170 176 179 177 178 176 188 186 188 204 216 250 269 265 263 244 281 299 284 280 270 252 246 246 243 234 233 222 227 239 217 205 210 201
222 171 170 167 173 175 176 168 165 166 169 169 177 182 184 186 185 197 217 245 266 278 249 207 230 275 287 286 339 303 280 205 243 241 246 228 216 221 221 200 189 198 200
146 152 160 161 165 167 164 162 159 158 168 166 167 178 195 211 213 207 223 251 265 277 188 197 234 256 261 245 248 275 325 354 274 245 235 228 228 214 225 205 198 174 172
140 146 151 157 160 159 158 159 157 160 170 171 176 182 176 176 186 214 224 219 170 168 181 172 187 216 265 279 275 255 203 205 257 237 214 193 196 214 221 212 200 188 163
143 143 150 156 157 152 152 157 157 160 167 165 166 164 166 170 189 196 179 148 154 152 79 111 100 268 291 272 251 237 139 152 162 160 152 175 182 202 215 205 207 207 205
144 147 151 153 151 153 154 153 153 157 162 164 167 163 172 207 180 171 147 169 148 155 134 97 49 14 338 266 198 183 180 195 253 214 168 162 167 188 177 187 227 198 200
145 150 151 150 154 158 157 157 157 163 164 158 175 177 195 218 194 178 160 203 166 159 140 81 5 320 329 293 216 222 222 228 250 151 160 148 165 123 90 180 183 197 179
145 149 151 154 158 160 160 162 164 167 164 173 171 183 212 211 182 165 151 126 141 143 154 213 304 327 321 43 43 254 260 214 228 150 157 162 156 127 131 146 161 155 151
146 151 156 158 162 163 162 167 170 167 171 177 178 191 207 224 170 166 164 163 153 165 164 190 326 16 27 87 85 58 328 82 135 143 150 151 158 152 149 154 154 157 151
148 155 160 160 166 164 167 166 173 169 173 183 185 187 204 161 155 169 162 168 171 172 165 171 98 48 42 74 71 68 81 114 116 112 143 140 140 155 167 169 152 144 130
154 160 164 165 168 168 168 165 174 168 180 177 177 185 142 138 153 166 179 166 169 168 158 155 178 59 73 83 81 75 103 104 103 118 128 120 118 129 128 160 150 144 134
158 165 166 168 169 170 168 170 174 171 180 169 168 157 155 153 147 163 166 174 168 162 177 193 180 147 99 93 87 93 103 109 122 118 122 119 117 127 136 150 151 151 141
163 167 169 170 170 170 169 170 172 173 178 171 161 154 155 140 147 154 161 164 172 176 195 189 172 175 117 113 97 114 122 114 117 118 123 123 128 139 150 150 153 149 147
170 171 172 170 168 169 170 170 169 173 181 171 161 164 163 158 161 169 168 173 186 192 196 208 189 179 157 131 124 126 139 127 125 127 136 135 133 142 155 155 152 150 156
173 169 170 169 167 169 171 173 172 177 185 179 165 167 170 169 171 193 195 198 197 202 195 187 195 189 173 161 140 139 149 143 139 126 133 143 145 148 158 161 160 157 157
161 170 170 170 170 171 174 174 177 181 179 180 178 177 174 168 190 189 178 168 167 173 181 185 178 169 160 157 149 147 155 160 148 142 140 146 151 158 165 158 161 157 153
131 171 170 170 172 174 176 176 182 179 183 182 183 178 170 168 171 171 167 165 153 158 166 169 167 157 159 153 146 153 165 160 166 151 144 150 149 151 166 177 172 167 165
79 174 174 171 175 179 184 179 184 179 183 184 185 178 175 181 186 168 158 154 143 145 154 158 149 143 150 154 155 151 155 148 154 151 140 138 139 145 160 170 178 166 173
110 161 179 175 177 183 187 185 185 179 184 187 184 179 180 178 174 159 146 158 154 153 153 159 162 156 160 161 159 155 155 141 146 142 139 136 138 145 152 168 173 173 170
42 263 184 184 182 186 187 185 188 184 190 188 185 182 186 187 173 171 166 174 185 163 166 162 171 167 172 172 166 160 153 150 143 145 149 148 150 151 151 154 172 178 173
351 18 203 194 189 189 187 186 190 188 194 191 185 184 187 192 179 177 187 204 196 185 219 173 119 122 150 166 171 169 166 167 161 160 161 161 162 160 157 154 157 167 180
Wind_Speed_850mb
51 51 55 46 53 48 48 36 50 54 56 61 67 68 66 60 52 49 32 31 33 32 26 26 34 47 50 50 42 38 37 37 34 33 31 33 35 32 34 38 36 37 40
65 54 55 46 42 47 34 41 49 53 57 58 63 56 50 54 47 39 35 36 35 34 34 30 40 48 48 42 36 33 35 34 31 34 24 22 33 35 37 42 38 35 34
44 49 52 57 54 42 40 44 45 47 52 54 47 39 41 34 29 39 39 37 36 37 34 34 37 39 39 34 26 30 30 30 27 30 26 11 18 14 34 47 41 43 37
66 71 63 61 40 43 40 37 37 46 46 44 41 43 41 38 32 31 33 32 37 34 36 37 34 32 23 20 16 18 22 23 25 28 34 39 13 8 7 41 44 40 41
59 57 57 61 49 44 39 30 38 44 43 39 39 40 41 35 27 33 32 26 27 32 33 35 28 16 15 13 12 14 18 22 25 28 28 29 37 24 15 19 45 43 33
72 59 30 43 52 40 32 32 35 44 47 41 43 40 37 32 31 27 23 19 21 28 27 24 14 8 10 9 8 8 10 13 15 17 20 24 24 33 32 25 39 47 32
21 36 52 58 50 42 37 34 41 51 48 43 38 39 36 27 33 30 22 25 21 15 12 14 11 9 9 5 2 1 0 3 4 7 13 18 23 23 25 18 31 43 33
54 66 65 58 48 42 37 44 55 51 52 40 37 37 31 30 22 18 18 17 13 7 13 11 7 7 7 8 6 4 2 3 3 6 11 15 17 23 22 29 42 34 29
65 62 55 50 47 40 46 57 50 52 52 41 39 26 22 20 19 16 10 7 3 11 9 6 5 3 3 6 9 7 4 5 8 4 11 15 22 21 23 27 39 41 33
66 62 56 52 44 46 50 48 45 52 43 35 31 23 20 16 10 9 8 12 14 9 4 6 4 1 4 7 9 8 4 6 6 7 10 12 16 21 23 28 37 42 41
71 66 63 52 48 52 47 44 44 42 38 34 28 25 23 14 11 7 7 17 17 10 10 9 7 5 6 5 6 8 13 6 7 6 4 9 10 14 16 19 25 42 36
72 68 63 56 57 53 46 44 40 41 32 33 28 23 18 13 17 11 10 9 23 17 10 4 7 8 15 10 5 11 14 15 4 7 8 12 14 11 12 22 37 32 40
71 70 65 63 58 52 49 45 38 37 36 32 25 21 16 8 14 19 19 21 21 16 11 3 7 11 13 5 3 2 3 6 10 7 11 15 19 19 21 25 30 35 39
74 72 68 64 58 53 47 46 39 34 33 31 25 17 12 9 20 20 24 19 17 13 10 5 3 8 8 11 14 8 3 1 9 11 17 23 21 18 23 35 41 36 46
71 71 70 64 59 52 51 38 43 33 30 30 24 12 7 15 25 21 27 21 21 16 9 5 5 7 12 10 13 10 8 11 15 18 29 22 19 18 22 36 47 73 88
68 71 70 66 63 57 51 41 45 32 31 31 20 10 11 19 17 23 31 20 21 16 13 12 6 6 10 15 14 15 18 16 23 27 27 24 28 26 22 53 60 75 86
68 72 72 68 64 59 49 41 46 39 31 27 18 16 22 15 15 21 28 26 24 18 16 13 11 4 10 15 16 18 19 22 30 33 35 32 31 28 44 65 75 82 76
73 69 70 67 61 55 46 43 46 37 31 26 20 25 25 23 22 21 25 24 23 20 17 14 10 9 9 14 16 22 24 30 31 29 29 33 34 32 61 70 81 69 55
74 73 71 67 62 55 50 48 44 38 35 28 30 29 27 25 21 19 21 23 26 25 23 16 11 10 10 14 16 22 29 29 27 28 25 34 36 42 63 70 66 56 61
57 73 71 68 62 55 52 48 43 40 41 36 34 39 28 17 25 20 17 14 17 20 19 20 15 11 14 16 20 25 29 33 32 29 25 35 42 44 54 63 68 58 53
59 70 71 70 63 57 53 51 44 43 38 34 38 35 29 21 17 18 19 20 17 19 25 26 16 12 18 21 26 27 25 30 35 33 39 43 38 43 56 55 58 54 67
30 68 72 68 61 56 53 52 47 46 39 38 45 44 34 22 20 18 25 20 17 23 29 27 21 21 24 29 29 28 22 23 29 32 36 44 39 40 48 50 49 51 59
21 61 64 66 60 56 53 54 48 48 42 40 43 43 32 23 18 23 27 23 22 28 31 26 26 26 31 35 34 36 28 22 31 44 42 42 41 41 39 47 40 51 52
3 10 64 66 63 56 52 50 51 52 44 46 47 43 34 31 23 27 26 27 27 30 30 27 25 26 32 37 41 43 33 28 41 53 50 48 39 31 37 50 52 53 56
23 4 63 64 60 56 52 53 52 54 45 53 47 46 38 36 25 32 29 20 15 12 20 18 21 26 33 44 47 46 42 48 55 54 49 43 39 42 45 52 55 55 57
22 12 21 63 61 56 53 56 53 60 51 58 54 52 43 39 32 38 38 31 23 15 19 14 13 19 25 42 50 46 41 49 44 40 42 43 44 52 58 58 57 55 49
Wind_Direction_850mb
241 244 265 270 244 251 260 255 244 234 231 224 219 205 213 214 210 223 213 230 242 248 260 261 270 278 278 282 278 266 256 251 248 236 228 242 254 246 238 224 213 214 204
247 257 256 262 266 253 248 239 229 225 224 223 218 213 209 212 225 232 219 233 241 244 249 263 268 270 282 283 281 270 259 257 238 234 227 249 253 249 235 221 211 214 214
241 249 257 276 254 245 249 228 228 226 218 213 200 192 194 204 218 217 215 228 237 239 256 261 278 284 284 288 274 262 258 257 238 234 232 209 240 267 230 217 211 206 215
264 266 261 260 236 227 219 224 215 196 196 197 191 188 188 195 200 201 214 218 235 246 261 263 282 289 283 287 278 258 251 247 236 236 236 234 247 223 230 216 215 212 219
255 245 249 245 219 217 216 210 193 188 191 184 188 182 185 186 174 208 228 218 227 252 259 274 287 290 291 293 287 270 260 250 249 243 236 239 227 236 265 209 208 215 210
263 237 204 190 186 189 190 183 172 170 176 179 177 178 176 188 186 188 204 216 250 269 265 263 244 281 299 284 280 270 252 246 246 243 234 233 222 227 239 217 205 210 201
222 171 170 167 173 175 176 168 165 166 169 169 177 182 184 186 185 197 217 245 266 278 249 207 230 275 287 286 339 303 280 205 243 241 246 228 216 221 221 200 189 198 200
146 152 160 161 165 167 164 162 159 158 168 166 167 178 195 211 213 207 223 251 265 277 188 197 234 256 261 245 248 275 325 354 274 245 235 228 228 214 225 205 198 174 172
140 146 151 157 160 159 158 159 157 160 170 171 176 182 176 176 186 214 224 219 170 168 181 172 187 216 265 279 275 255 203 205 257 237 214 193 196 214 221 212 200 188 163
143 143 150 156 157 152 152 157 157 160 167 165 166 164 166 170 189 196 179 148 154 152 79 111 100 268 291 272 251 237 139 152 162 160 152 175 182 202 215 205 207 207 205
144 147 151 153 151 153 154 153 153 157 162 164 167 163 172 207 180 171 147 169 148 155 134 97 49 14 338 266 198 183 180 195 253 214 168 162 167 188 177 187 227 198 200
145 150 151 150 154 158 157 157 157 163 164 158 175 177 195 218 194 178 160 203 166 159 140 81 5 320 329 293 216 222 222 228 250 151 160 148 165 123 90 180 183 197 179
145 149 151 154 158 160 160 162 164 167 164 173 171 183 212 211 182 165 151 126 141 143 154 213 304 327 321 43 43 254 260 214 228 150 157 162 156 127 131 146 161 155 151
146 151 156 158 162 163 162 167 170 167 171 177 178 191 207 224 170 166 164 163 153 165 164 190 326 16 27 87 85 58 328 82 135 143 150 151 158 152 149 154 154 157 151
148 155 160 160 166 164 167 166 173 169 173 183 185 187 204 161 155 169 162 168 171 172 165 171 98 48 42 74 71 68 81 114 116 112 143 140 140 155 167 169 152 144 130
154 160 164 165 168 168 168 165 174 168 180 177 177 185 142 138 153 166 179 166 169 168 158 155 178 59 73 83 81 75 103 104 103 118 128 120 118 129 128 160 150 144 134
158 165 166 168 169 170 168 170 174 171 180 169 168 157 155 153 147 163 166 174 168 162 177 193 180 147 99 93 87 93 103 109 122 118 122 119 117 127 136 150 151 151 141
163 167 169 170 170 170 169 170 172 173 178 171 161 154 155 140 147 154 161 164 172 176 195 189 172 175 117 113 97 114 122 114 117 118 123 123 128 139 150 150 153 149 147
170 171 172 170 168 169 170 170 169 173 181 171 161 164 163 158 161 169 168 173 186 192 196 208 189 179 157 131 124 126 139 127 125 127 136 135 133 142 155 155 152 150 156
173 169 170 169 167 169 171 173 172 177 185 179 165 167 170 169 171 193 195 198 197 202 195 187 195 189 173 161 140 139 149 143 139 126 133 143 145 148 158 161 160 157 157
161 170 170 170 170 171 174 174 177 181 179 180 178 177 174 168 190 189 178 168 167 173 181 185 178 169 160 157 149 147 155 160 148 142 140 146 151 158 165 158 161 157 153
131 171 170 170 172 174 176 176 182 179 183 182 183 178 170 168 171 171 167 165 153 158 166 169 167 157 159 153 146 153 165 160 166 151 144 150 149 151 166 177 172 167 165
79 174 174 171 175 179 184 179 184 179 183 184 185 178 175 181 186 168 158 154 143 145 154 158 149 143 150 154 155 151 155 148 154 151 140 138 139 145 160 170 178 166 173
110 161 179 175 177 183 187 185 185 179 184 187 184 179 180 178 174 159 146 158 154 153 153 159 162 156 160 161 159 155 155 141 146 142 139 136 138 145 152 168 173 173 170
42 263 184 184 182 186 187 185 188 184 190 188 185 182 186 187 173 171 166 174 185 163 166 162 171 167 172 172 166 160 153 150 143 145 149 148 150 151 151 154 172 178 173
351 18 203 194 189 189 187 186 190 188 194 191 185 184 187 192 179 177 187 204 196 185 219 173 119 122 150 166 171 169 166 167 161 160 161 161 162 160 157 154 157 167 180